ASA011 KMIA-TNCM

Flight info

Callsign ASA011
Flight time N/A
Altitude 35000
Route KLADA2 BITAC Y290 SLUGO
Aircraft A21N/M-SDE2E3FGHIRWXY/LB1

Departure

Time 2026-04-30 14:31
Airport Miami International Airport (KMIA)

Arrival

Time N/A
Airport Princess Juliana International Airport (TNCM)
Time Latitude Longitude Altitude Speed Heading
2026-04-30 14:00 25.79976 -80.26886 39 ft 0 kts 44°
2026-04-30 14:10 25.79976 -80.26887 21 ft 0 kts 44°
2026-04-30 14:23 25.79951 -80.26911 22 ft 4 kts 36°
2026-04-30 14:24 25.79904 -80.26932 21 ft 4 kts 341°
2026-04-30 14:24 25.79893 -80.26923 23 ft 1 kts 301°
2026-04-30 14:25 25.79892 -80.26921 21 ft 0 kts 301°
2026-04-30 14:28 25.79897 -80.26930 22 ft 3 kts 301°
2026-04-30 14:28 25.79912 -80.26957 22 ft 5 kts 308°
2026-04-30 14:28 25.79937 -80.26992 21 ft 7 kts 307°
2026-04-30 14:28 25.79968 -80.27038 21 ft 8 kts 307°
2026-04-30 14:29 25.80070 -80.27051 21 ft 11 kts 49°
2026-04-30 14:29 25.80184 -80.26987 23 ft 14 kts 319°
2026-04-30 14:30 25.80181 -80.27184 22 ft 57 kts 269°
2026-04-30 14:31 25.80113 -80.29125 62 ft 177 kts 267°
2026-04-30 14:31 25.80090 -80.31833 1379 ft 185 kts 270°
2026-04-30 14:31 25.79930 -80.33339 1765 ft 207 kts 251°
2026-04-30 14:32 25.78956 -80.36697 2684 ft 251 kts 251°
2026-04-30 14:32 25.78396 -80.38548 3339 ft 262 kts 245°
2026-04-30 14:32 25.77370 -80.40249 4162 ft 264 kts 226°
2026-04-30 14:33 25.76086 -80.41713 5035 ft 266 kts 225°
2026-04-30 14:33 25.73169 -80.44265 6547 ft 274 kts 200°
2026-04-30 14:33 25.71264 -80.44576 7204 ft 281 kts 182°
2026-04-30 14:34 25.69318 -80.44540 7891 ft 285 kts 179°
2026-04-30 14:34 25.67350 -80.44199 8563 ft 293 kts 162°
2026-04-30 14:34 25.65599 -80.43008 9289 ft 302 kts 134°
2026-04-30 14:34 25.64727 -80.41748 9839 ft 308 kts 121°
2026-04-30 14:35 25.62579 -80.37337 10707 ft 352 kts 118°
2026-04-30 14:35 25.61390 -80.34905 11107 ft 364 kts 119°
2026-04-30 14:35 25.60302 -80.32342 11713 ft 369 kts 107°
2026-04-30 14:36 25.59925 -80.29533 12352 ft 371 kts 89°
2026-04-30 14:36 25.59998 -80.26672 12995 ft 374 kts 85°
2026-04-30 14:36 25.60115 -80.23778 13644 ft 379 kts 85°
2026-04-30 14:36 25.60219 -80.20840 14222 ft 383 kts 86°
2026-04-30 14:37 25.60305 -80.17877 14806 ft 387 kts 86°
2026-04-30 14:37 25.60379 -80.14881 15400 ft 390 kts 86°
2026-04-30 14:37 25.60450 -80.11869 15999 ft 393 kts 86°
2026-04-30 14:37 25.60522 -80.08833 16594 ft 396 kts 86°
2026-04-30 14:38 25.60596 -80.05768 17203 ft 400 kts 87°
2026-04-30 14:38 25.60667 -80.02668 17838 ft 404 kts 87°
2026-04-30 14:38 25.60740 -79.99555 18420 ft 406 kts 87°
2026-04-30 14:38 25.60811 -79.96412 18898 ft 410 kts 87°
2026-04-30 14:39 25.60805 -79.93239 19380 ft 414 kts 91°
2026-04-30 14:39 25.60665 -79.90044 19864 ft 417 kts 91°
2026-04-30 14:39 25.60512 -79.86823 20352 ft 420 kts 91°
2026-04-30 14:40 25.60201 -79.80325 21304 ft 425 kts 91°
2026-04-30 14:40 25.60046 -79.77048 21803 ft 428 kts 91°
2026-04-30 14:40 25.59890 -79.73747 22301 ft 431 kts 91°
2026-04-30 14:40 25.59585 -79.70428 22780 ft 435 kts 99°
2026-04-30 14:41 25.58752 -79.67195 23235 ft 439 kts 109°
2026-04-30 14:41 25.57615 -79.64044 23686 ft 441 kts 112°
2026-04-30 14:41 25.56429 -79.60902 24097 ft 442 kts 112°
2026-04-30 14:41 25.55246 -79.57750 24499 ft 444 kts 112°
2026-04-30 14:42 25.54075 -79.54584 24882 ft 446 kts 111°
2026-04-30 14:42 25.52905 -79.51394 25254 ft 448 kts 111°
2026-04-30 14:42 25.51732 -79.48187 25621 ft 450 kts 111°
2026-04-30 14:42 25.50556 -79.44976 25979 ft 452 kts 112°
2026-04-30 14:43 25.49367 -79.41737 26335 ft 454 kts 112°
2026-04-30 14:43 25.48175 -79.38489 26693 ft 457 kts 112°
2026-04-30 14:43 25.46994 -79.35272 27022 ft 459 kts 112°
2026-04-30 14:43 25.45786 -79.31990 27355 ft 461 kts 112°
2026-04-30 14:44 25.44577 -79.28699 27678 ft 464 kts 112°
2026-04-30 14:44 25.43358 -79.25391 28000 ft 466 kts 112°
2026-04-30 14:44 25.42130 -79.22067 28311 ft 468 kts 112°
2026-04-30 14:44 25.40898 -79.18728 28617 ft 470 kts 112°
2026-04-30 14:45 25.39653 -79.15368 28918 ft 472 kts 112°
2026-04-30 14:45 25.38407 -79.12003 29226 ft 475 kts 112°
2026-04-30 14:45 25.37156 -79.08620 29524 ft 477 kts 112°
2026-04-30 14:45 25.35895 -79.05219 29816 ft 479 kts 112°
2026-04-30 14:46 25.34626 -79.01796 30043 ft 483 kts 112°
2026-04-30 14:46 25.33350 -78.98346 30276 ft 486 kts 112°
2026-04-30 14:46 25.32071 -78.94889 30499 ft 488 kts 111°
2026-04-30 14:46 25.30780 -78.91407 30772 ft 489 kts 111°
2026-04-30 14:47 25.29494 -78.87946 31085 ft 488 kts 111°
2026-04-30 14:47 25.28203 -78.84465 31394 ft 488 kts 111°
2026-04-30 14:47 25.26916 -78.81008 31696 ft 487 kts 111°
2026-04-30 14:47 25.25626 -78.77553 32006 ft 487 kts 111°
2026-04-30 14:48 25.24333 -78.74091 32311 ft 486 kts 111°
2026-04-30 14:48 25.23048 -78.70643 32610 ft 486 kts 111°
2026-04-30 14:48 25.21762 -78.67197 32871 ft 486 kts 111°
2026-04-30 14:48 25.20472 -78.63743 33023 ft 488 kts 111°
2026-04-30 14:49 25.19171 -78.60266 33268 ft 489 kts 111°
2026-04-30 14:49 25.17851 -78.56817 33525 ft 489 kts 112°
2026-04-30 14:49 25.16453 -78.53384 33743 ft 490 kts 113°
2026-04-30 14:49 25.15052 -78.49963 33954 ft 490 kts 113°
2026-04-30 14:50 25.12240 -78.43104 34356 ft 489 kts 113°
2026-04-30 14:50 25.10839 -78.39696 34577 ft 488 kts 113°
2026-04-30 14:51 25.08037 -78.32881 34989 ft 486 kts 113°
2026-04-30 14:51 25.06641 -78.29486 35060 ft 487 kts 113°
2026-04-30 14:52 25.02445 -78.19295 35029 ft 486 kts 113°
2026-04-30 14:52 24.98247 -78.09123 35015 ft 486 kts 113°
2026-04-30 14:53 24.94027 -77.98940 35015 ft 487 kts 114°
2026-04-30 14:54 24.88399 -77.85383 35016 ft 486 kts 113°
2026-04-30 14:55 24.84170 -77.75223 35025 ft 487 kts 113°
2026-04-30 14:56 24.78569 -77.61805 35025 ft 474 kts 113°
2026-04-30 14:57 24.74398 -77.51994 35025 ft 474 kts 115°
2026-04-30 14:58 24.68462 -77.38991 35011 ft 474 kts 115°
2026-04-30 14:58 24.64033 -77.29308 35021 ft 474 kts 115°
2026-04-30 15:00 24.56595 -77.13108 35013 ft 476 kts 115°
2026-04-30 15:01 24.50627 -77.00154 35018 ft 475 kts 115°
2026-04-30 15:01 24.46156 -76.90454 35018 ft 475 kts 115°
2026-04-30 15:02 24.43173 -76.83992 35023 ft 473 kts 114°
2026-04-30 15:03 24.35820 -76.68133 35017 ft 466 kts 115°
2026-04-30 15:04 24.28459 -76.52320 35016 ft 466 kts 115°
2026-04-30 15:06 24.21123 -76.36571 35015 ft 465 kts 114°
2026-04-30 15:07 24.15220 -76.23958 35018 ft 465 kts 114°
2026-04-30 15:08 24.09302 -76.11349 35023 ft 465 kts 114°
2026-04-30 15:09 24.01905 -75.95630 35024 ft 465 kts 114°
2026-04-30 15:10 23.95976 -75.83061 35024 ft 465 kts 114°
2026-04-30 15:11 23.87043 -75.64219 35023 ft 466 kts 114°
2026-04-30 15:13 23.79583 -75.48507 35029 ft 466 kts 114°
2026-04-30 15:14 23.69109 -75.26551 35029 ft 467 kts 114°
2026-04-30 15:17 23.55596 -74.98388 35032 ft 465 kts 115°
2026-04-30 15:19 23.43553 -74.73419 35023 ft 465 kts 116°